Location: Ciserano
(45.5833°N, 9.6000°E)
Time: 07:11:40
(UTC+00:00)

Cosmos 1295 Rocket - Pass Details

Date: 25 April 2021
Orbit: 944 x 993 km, 82.9° (Epoch: 13 May)

Event Time Altitude Azimuth Distance (km) Brightness Sun altitude
Rises 22:47:17 0° 354° (N) 3,688 8.7 -30.5°
Reaches altitude 10° 22:49:52 10° 359° (N) 2,743 7.7 -30.5°
Enters shadow 22:55:59 56° 75° (ENE) 1,163 4.8 -30.7°
